Flag Weather past 2 weeks in Halle, Saxony-Anhalt, Germany

Now
41 °F

Passing clouds.


Feels Like: 35 °F
Forecast: 33 / 42 °F
Wind: 10 mph from Southeast

Location: Leipzig-Schkeuditz

Current Time: Nov 21, 2014 at 7:10:05 PM

Latest Report: Nov 21, 2014 at 6:20 PM


Visibility: N/A

Pressure: 30.27 "Hg

Humidity: 87%

Dew point: 37 °F

Location of HalleLocation

Historic Weather in Halle — Graph

°F

Halle temperature yesterday

Maximum temperature yesterday: 41 °F (at 1:50 AM)
Minimum temperature yesterday: 39 °F (at 12:20 AM)
Average temperature yesterday: 41 °F

Past Weeks' High & Low Weather Summary

 TemperatureHumidityPressure
High57 °F (Nov 14, 12:20 PM)100% (Nov 7, 1:50 AM)30.33 "Hg (Nov 7, 1:50 AM)
Low36 °F (Nov 7, 7:20 AM)63% (Nov 8, 2:50 PM)29.53 "Hg (Nov 16, 4:20 AM)
Average45 °F95%29.88 "Hg
* Reported Nov 6 5:20 PM — Nov 21 5:50 PM, Halle, Weather by CustomWeather, © 2014

Note: Actual official high and low records may vary slightly from our data, if they occured in-between our weather recording intervals... More about our weather records

Advertising

Halle weather history for previous 24 hours

 ConditionsComfort  
Time TempWeatherWind HumidityBarometerVisibility
5:50 PM
Nov 21
41 °FPassing clouds.10 mph87%30.24 "HgN/A
5:20 PM41 °FPassing clouds.9 mph87%30.24 "HgN/A
4:50 PM41 °FPassing clouds.10 mph93%30.24 "HgN/A
4:20 PM41 °FPassing clouds.9 mph93%30.27 "HgN/A
3:50 PM41 °FPartly sunny.8 mph93%30.27 "HgN/A
3:20 PM43 °FPartly sunny.8 mph87%30.27 "HgN/A
2:50 PM43 °FPartly sunny.8 mph87%30.27 "HgN/A
2:20 PM43 °FPartly sunny.10 mph87%30.27 "HgN/A
1:50 PM43 °FBroken clouds.10 mph87%30.27 "HgN/A
1:20 PM43 °FBroken clouds.9 mph87%30.30 "HgN/A
12:50 PM43 °FPassing clouds.9 mph81%30.30 "HgN/A
12:20 PM45 °FScattered clouds.12 mph81%30.30 "HgN/A
11:50 AM43 °FBroken clouds.10 mph87%30.30 "HgN/A
11:20 AM43 °FBroken clouds.9 mph81%30.30 "HgN/A
10:50 AM43 °FBroken clouds.10 mph81%30.30 "HgN/A
10:20 AM43 °FPartly sunny.8 mph81%30.33 "HgN/A
9:50 AM43 °FPartly sunny.8 mph87%30.33 "HgN/A
9:20 AM41 °FPartly sunny.7 mph93%30.33 "HgN/A
8:50 AM41 °FPartly sunny.5 mph93%30.33 "HgN/A
8:20 AM41 °FPartly sunny.3 mph100%30.30 "Hg5 mi
7:50 AM41 °FBroken clouds.5 mph100%30.30 "Hg4 mi
7:20 AM41 °FPassing clouds.3 mph100%30.30 "Hg4 mi
6:50 AM41 °FPassing clouds.3 mph100%30.30 "Hg5 mi
6:20 AM41 °FPassing clouds.3 mph100%30.30 "Hg4 mi
5:50 AM41 °FPassing clouds.2 mph100%30.30 "Hg4 mi
5:20 AM41 °FPassing clouds.5 mph100%30.30 "Hg4 mi
4:50 AM41 °FPassing clouds.3 mph100%30.30 "Hg4 mi
4:20 AM41 °FPartly cloudy.3 mph100%30.30 "Hg4 mi
3:50 AM41 °FPartly cloudy.3 mph100%30.30 "Hg4 mi
3:20 AM41 °FPartly cloudy.5 mph100%30.30 "Hg4 mi
2:50 AM41 °FPassing clouds.2 mph100%30.30 "Hg4 mi
2:20 AM41 °FPartly cloudy.2 mph100%30.30 "Hg4 mi
1:50 AM41 °FPassing clouds.2 mph100%30.33 "Hg4 mi
1:20 AM41 °FPartly cloudy.2 mph100%30.33 "Hg4 mi
12:50 AM41 °FPassing clouds.3 mph100%30.33 "Hg4 mi
12:20 AM41 °FPassing clouds.3 mph100%30.33 "Hg4 mi
11:50 PM
Nov 20
41 °FPartly cloudy.3 mph100%30.33 "Hg4 mi
11:20 PM41 °FPartly cloudy.3 mph100%30.33 "Hg4 mi
10:50 PM41 °FPartly cloudy.2 mph100%30.33 "Hg4 mi
10:20 PM41 °FPartly cloudy.2 mph100%30.33 "Hg4 mi
9:50 PM41 °FPartly cloudy.2 mph100%30.33 "Hg4 mi
9:20 PM41 °FPartly cloudy.2 mph100%30.33 "Hg4 mi
8:20 PM41 °FPartly cloudy.3 mph100%30.33 "Hg4 mi
7:50 PM41 °FPartly cloudy.3 mph100%30.33 "Hg4 mi
7:20 PM41 °FPassing clouds.3 mph100%30.33 "Hg4 mi
Weather by CustomWeather, © 2014

See weather overviewHow to use our weather pages